Lid_Strength_Index
3 3 3 3 3 3 3 2 1 1 0 0 0 0 0 2 3 3 1 2 2 2
3 3 3 2 3 2 2 1 1 1 1 1 0 0 0 1 1 2 2 1 2 2
3 2 3 3 3 3 3 2 2 1 1 1 0 0 1 1 1 2 2 2 1 2
3 3 3 3 4 3 3 3 3 2 2 1 1 1 1 1 1 2 2 4 2 2
4 3 4 4 4 4 4 4 3 3 3 2 2 1 1 2 1 2 3 3 3 3
4 4 4 4 4 4 4 4 4 3 3 3 2 1 1 1 1 1 1 3 2 2
4 4 5 4 5 5 4 5 4 4 3 3 2 1 1 1 1 2 1 1 1 1
5 4 5 5 5 5 4 4 4 4 3 3 2 1 2 1 2 2 3 3 1 1
6 5 5 5 5 6 5 5 5 4 4 3 2 3 4 2 2 3 4 5 2 2
6 5 5 5 5 6 7 6 5 5 4 2 3 5 6 6 5 4 6 4 3 3
5 5 5 5 5 6 7 6 6 4 3 3 1 6 9 8 4 4 5 4 2 4
6 6 6 6 6 8 6 6 5 4 3 2 3 8 8 7 4 3 3 3 3 3
7 7 7 7 7 6 6 6 5 3 3 5 5 8 8 6 4 4 4 4 5 6
7 7 7 7 6 7 7 6 5 5 6 6 7 6 8 7 4 5 5 6 7 7